,,Stat5,,Stat1,,Stat2,,Stat3,,Stat4,,Wind1,,Wind1,
time,status,PA1M_AVG,status,PR1M_SUM,status,RH1M_AVG,status,SR1M_AVG,status,TA1M_AVG,status,W1dAve1m,status,W1sAve1m,
2002-07-15, 00:00:01,VALID,918.249,VALID,0,VALID,91.8226,VALID,0,VALID,18.5008,VALID,14,VALID,0.408512,
2002-07-15, 00:01:00,VALID,918.198,VALID,0,VALID,91.3889,VALID,0,VALID,18.4392,VALID,66,VALID,0.25185,
2002-07-15, 00:02:00,VALID,918.171,VALID,0,VALID,92.1023,VALID,-0.0169808,VALID,18.4228,VALID,96,VALID,0.54707,
2002-07-15, 00:03:00,VALID,918.132,VALID,0,VALID,91.7628,VALID,-0.0339617,VALID,18.4586,VALID,56,VALID,0.354384,
2002-07-15, 00:04:00,VALID,918.123,VALID,0,VALID,91.5517,VALID,-0.0169808,VALID,18.4678,VALID,33,VALID,0.447266,
2002-07-15, 00:05:00,VALID,918.137,VALID,0,VALID,91.155,VALID,0.0169808,VALID,18.475,VALID,28,VALID,0.025046,
2002-07-15, 00:06:00,VALID,918.108,VALID,0,VALID,91.0087,VALID,-0.0169808,VALID,18.4298,VALID,41,VALID,0.582812,
2002-07-15, 00:07:01,VALID,918.061,VALID,0,VALID,90.9897,VALID,-0.0169808,VALID,18.3553,VALID,53,VALID,0.524439,
2002-07-15, 00:08:00,VALID,918.051,VALID,0,VALID,91.7564,VALID,-0.0169808,VALID,18.3204,VALID,52,VALID,0.0344172,
2002-07-15, 00:09:01,VALID,918.054,VALID,0,VALID,92.2257,VALID,-0.0169808,VALID,18.3163,VALID,85,VALID,0.275699,
2002-07-15, 00:10:00,VALID,918.052,VALID,0,VALID,91.9167,VALID,-0.0509425,VALID,18.3458,VALID,44,VALID,0.405804,
2002-07-15, 00:11:01,VALID,918.049,VALID,0,VALID,91.4589,VALID,-0.0679233,VALID,18.3516,VALID,40,VALID,0.0164263,
2002-07-15, 00:12:00,VALID,918.039,VALID,0,VALID,91.6458,VALID,-0.0339617,VALID,18.3744,VALID,93,VALID,0.279119,
2002-07-15, 00:13:00,VALID,918.012,VALID,0,VALID,91.6217,VALID,0,VALID,18.4293,VALID,101,VALID,0.337674,
2002-07-15, 00:14:00,VALID,917.993,VALID,0,VALID,90.8345,VALID,0,VALID,18.5133,VALID,113,VALID,0.0230263,
2002-07-15, 00:15:00,VALID,917.961,VALID,0,VALID,90.701,VALID,0,VALID,18.546,VALID,101,VALID,0.307031,
2002-07-15, 00:16:00,VALID,917.921,VALID,0,VALID,90.1301,VALID,0,VALID,18.6655,VALID,8,VALID,0.219922,
2002-07-15, 00:17:00,VALID,917.909,VALID,0,VALID,89.7435,VALID,-0.0169808,VALID,18.7371,VALID,69,VALID,0.30599,
2002-07-15, 00:18:00,VALID,917.895,VALID,0,VALID,89.3467,VALID,0,VALID,18.7751,VALID,82,VALID,0,
2002-07-15, 00:19:00,VALID,917.886,VALID,0,VALID,89.2743,VALID,-0.0679233,VALID,18.7823,VALID,56,VALID,0.314108,
2002-07-15, 00:20:00,VALID,917.9,VALID,0,VALID,89.1077,VALID,-0.0679233,VALID,18.7689,VALID,72,VALID,0.41317,
2002-07-15, 00:21:01,VALID,917.898,VALID,0,VALID,89.6596,VALID,-0.0339617,VALID,18.7207,VALID,86,VALID,0.302484,
2002-07-15, 00:22:01,VALID,917.899,VALID,0,VALID,89.7511,VALID,-0.0679233,VALID,18.7177,VALID,201,VALID,0.548142,
2002-07-15, 00:23:01,VALID,917.891,VALID,0,VALID,89.2972,VALID,-0.0679233,VALID,18.7691,VALID,154,VALID,0.353002,
2002-07-15, 00:24:00,VALID,917.846,VALID,0,VALID,88.2837,VALID,-0.0339617,VALID,18.8176,VALID,24,VALID,0.352455,
2002-07-15, 00:25:01,VALID,917.84,VALID,0,VALID,88.6868,VALID,-0.0679233,VALID,18.7883,VALID,120,VALID,0.2502,
2002-07-15, 00:26:01,VALID,917.844,VALID,0,VALID,89.1611,VALID,-0.0339617,VALID,18.788,VALID,120,VALID,0.0958807,
2002-07-15, 00:27:00,VALID,917.848,VALID,0,VALID,88.6423,VALID,-0.0849042,VALID,18.8114,VALID,104,VALID,0.287109,
2002-07-15, 00:28:00,VALID,917.845,VALID,0,VALID,88.9449,VALID,-0.0679233,VALID,18.789,VALID,117,VALID,0.260074,
2002-07-15, 00:29:00,VALID,917.832,VALID,0,VALID,89.4968,VALID,-0.0849042,VALID,18.7341,VALID,108,VALID,0.194727,
2002-07-15, 00:30:00,VALID,917.813,VALID,0,VALID,89.5222,VALID,-0.0849042,VALID,18.6891,VALID,95,VALID,0.107227,
2002-07-15, 00:31:00,VALID,917.798,VALID,0,VALID,89.9037,VALID,-0.0849042,VALID,18.6208,VALID,95,VALID,0.015408,
2002-07-15, 00:32:00,VALID,917.784,VALID,0,VALID,90.3081,VALID,-0.0509425,VALID,18.5622,VALID,59,VALID,0.782118,
2002-07-15, 00:33:00,VALID,917.773,VALID,0,VALID,90.3755,VALID,-0.0509425,VALID,18.4782,VALID,56,VALID,0.558824,
2002-07-15, 00:34:00,VALID,917.789,VALID,0,VALID,90.57,VALID,-0.0679233,VALID,18.3876,VALID,56,VALID,0.391071,
2002-07-15, 00:35:01,VALID,917.795,VALID,0,VALID,91.1257,VALID,-0.0509425,VALID,18.2909,VALID,56,VALID,0.578125,
2002-07-15, 00:36:00,VALID,917.797,VALID,0,VALID,92.2905,VALID,-0.0679233,VALID,18.2522,VALID,42,VALID,0.540963,
2002-07-15, 00:37:01,VALID,917.777,VALID,0,VALID,92.5537,VALID,-0.0679233,VALID,18.3038,VALID,23,VALID,0.141653,
2002-07-15, 00:38:00,VALID,917.749,VALID,0,VALID,92.5067,VALID,-0.0679233,VALID,18.3497,VALID,23,VALID,0.234152,
2002-07-15, 00:39:01,VALID,917.73,VALID,0,VALID,92.3516,VALID,-0.0679233,VALID,18.3913,VALID,23,VALID,0.368389,
2002-07-15, 00:40:01,VALID,917.722,VALID,0,VALID,91.9968,VALID,-0.0679233,VALID,18.4076,VALID,22,VALID,0.294508,
2002-07-15, 00:41:00,VALID,917.742,VALID,0,VALID,92.3427,VALID,-0.0679233,VALID,18.4268,VALID,22,VALID,0.338976,
2002-07-15, 00:42:00,VALID,917.734,VALID,0,VALID,92.3592,VALID,-0.0679233,VALID,18.4623,VALID,22,VALID,0.426398,
2002-07-15, 00:43:00,VALID,917.741,VALID,0,VALID,92.1634,VALID,-0.0679233,VALID,18.4787,VALID,22,VALID,0.0828125,
2002-07-15, 00:44:00,VALID,917.748,VALID,0,VALID,92.143,VALID,-0.0339617,VALID,18.4556,VALID,22,VALID,0,
2002-07-15, 00:45:00,VALID,917.708,VALID,0,VALID,92.2549,VALID,-0.0679233,VALID,18.4395,VALID,22,VALID,0,
2002-07-15, 00:46:00,VALID,917.718,VALID,0,VALID,92.3121,VALID,-0.0679233,VALID,18.43,VALID,14,VALID,0.031684,
2002-07-15, 00:47:01,VALID,917.737,VALID,0,VALID,91.9459,VALID,-0.0509425,VALID,18.3423,VALID,291,VALID,0.558594,
2002-07-15, 00:48:00,VALID,917.749,VALID,0,VALID,92.1862,VALID,-0.0509425,VALID,18.281,VALID,286,VALID,0.222545,
2002-07-15, 00:49:01,VALID,917.729,VALID,0,VALID,92.3414,VALID,-0.0339617,VALID,18.2655,VALID,303,VALID,0.31851,
2002-07-15, 00:50:01,VALID,917.721,VALID,0,VALID,91.5822,VALID,-0.0679233,VALID,18.1135,VALID,8,VALID,0.15266,
2002-07-15, 00:51:01,VALID,917.692,VALID,0,VALID,92.3922,VALID,-0.0169808,VALID,18.0392,VALID,9,VALID,0,
2002-07-15, 00:52:00,VALID,917.68,VALID,0,VALID,92.9607,VALID,-0.0339617,VALID,17.9936,VALID,9,VALID,0.000892857,
2002-07-15, 00:53:01,VALID,917.675,VALID,0,VALID,93.407,VALID,-0.0849042,VALID,17.9848,VALID,4,VALID,0.0116186,
2002-07-15, 00:54:00,VALID,917.662,VALID,0,VALID,94.1064,VALID,-0.0849042,VALID,17.9717,VALID,247,VALID,0.533617,
2002-07-15, 00:55:00,VALID,917.674,VALID,0,VALID,94.0008,VALID,-0.0509425,VALID,17.9521,VALID,263,VALID,0.198785,
2002-07-15, 00:56:00,VALID,917.672,VALID,0,VALID,94.484,VALID,-0.0679233,VALID,17.8972,VALID,11,VALID,0.713199,
2002-07-15, 00:57:01,VALID,917.64,VALID,0,VALID,94.0237,VALID,-0.0679233,VALID,17.8068,VALID,30,VALID,0.639258,
2002-07-15, 00:58:01,VALID,917.653,VALID,0,VALID,94.4357,VALID,-0.0509425,VALID,17.6967,VALID,21,VALID,0.0445312,
2002-07-15, 00:59:01,VALID,917.64,VALID,0,VALID,95.1898,VALID,-0.0679233,VALID,17.7067,VALID,21,VALID,0.201823,
2002-07-15, 01:00:01,VALID,917.628,VALID,0,VALID,95.5674,VALID,-0.0339617,VALID,17.7198,VALID,299,VALID,0.545139,
2002-07-15, 01:01:01,VALID,917.678,VALID,0,VALID,96.6877,VALID,-0.0679233,VALID,17.8231,VALID,246,VALID,0.581342,
2002-07-15, 01:02:01,VALID,917.688,VALID,0,VALID,97.0959,VALID,-0.0679233,VALID,17.8806,VALID,277,VALID,0.0754464,
2002-07-15, 01:03:01,VALID,917.671,VALID,0,VALID,97.0959,VALID,-0.0509425,VALID,17.9292,VALID,298,VALID,0.224159,
2002-07-15, 01:04:01,VALID,917.668,VALID,0,VALID,96.1511,VALID,0.0849042,VALID,17.8702,VALID,41,VALID,0.671242,
2002-07-15, 01:05:01,VALID,917.661,VALID,0,VALID,95.2661,VALID,0.0509425,VALID,17.6793,VALID,53,VALID,0.450041,
2002-07-15, 01:06:01,VALID,917.662,VALID,0,VALID,95.5293,VALID,0.0509425,VALID,17.5792,VALID,26,VALID,0.229018,
2002-07-15, 01:07:01,VALID,917.68,VALID,0,VALID,96.5211,VALID,0,VALID,17.6509,VALID,13,VALID,0.811699,
2002-07-15, 01:08:01,VALID,917.67,VALID,0,VALID,96.5733,VALID,0,VALID,17.7157,VALID,23,VALID,1.04001,
2002-07-15, 01:09:01,VALID,917.672,VALID,0,VALID,96.2071,VALID,0.0339617,VALID,17.6995,VALID,31,VALID,0.750868,
2002-07-15, 01:10:01,VALID,917.689,VALID,0,VALID,96.1358,VALID,0.0169808,VALID,17.6599,VALID,30,VALID,0.390625,
2002-07-15, 01:11:01,VALID,917.693,VALID,0,VALID,96.1091,VALID,0.0339617,VALID,17.6567,VALID,37,VALID,0.696875,
2002-07-15, 01:12:01,VALID,917.702,VALID,0,VALID,95.9324,VALID,0.0169808,VALID,17.6405,VALID,39,VALID,0.555273,
2002-07-15, 01:13:01,VALID,917.707,VALID,0,VALID,96.0265,VALID,0.0339617,VALID,17.6444,VALID,39,VALID,0.346788,
2002-07-15, 01:14:01,VALID,917.697,VALID,0,VALID,95.8586,VALID,0.0509425,VALID,17.6377,VALID,34,VALID,0.608941,
2002-07-15, 01:15:01,VALID,917.684,VALID,0,VALID,95.4708,VALID,0.0509425,VALID,17.6186,VALID,30,VALID,0.475184,
2002-07-15, 01:16:01,VALID,917.685,VALID,0,VALID,94.9634,VALID,0.0339617,VALID,17.5379,VALID,31,VALID,0.757143,
2002-07-15, 01:17:01,VALID,917.689,VALID,0,VALID,95.2851,VALID,0.0169808,VALID,17.4798,VALID,35,VALID,0.780649,
2002-07-15, 01:18:01,VALID,917.683,VALID,0,VALID,95.6196,VALID,0.0679233,VALID,17.4793,VALID,40,VALID,0.551098,
2002-07-15, 01:19:01,VALID,917.692,VALID,0,VALID,95.8892,VALID,0,VALID,17.5162,VALID,52,VALID,0.377262,
2002-07-15, 01:20:01,VALID,917.693,VALID,0,VALID,95.9871,VALID,0,VALID,17.5482,VALID,50,VALID,0.0372768,
2002-07-15, 01:21:01,VALID,917.668,VALID,0,VALID,95.8993,VALID,-0.0169808,VALID,17.5807,VALID,50,VALID,0.0126202,
2002-07-15, 01:22:01,VALID,917.642,VALID,0,VALID,95.7836,VALID,-0.0339617,VALID,17.5773,VALID,57,VALID,0.35322,
2002-07-15, 01:23:01,VALID,917.633,VALID,0,VALID,95.7213,VALID,0.0169808,VALID,17.5939,VALID,74,VALID,0.177083,
2002-07-15, 01:24:01,VALID,917.626,VALID,0,VALID,95.5763,VALID,-0.0169808,VALID,17.5775,VALID,69,VALID,0.358141,
2002-07-15, 01:25:00,VALID,917.603,VALID,0,VALID,95.706,VALID,-0.0169808,VALID,17.5747,VALID,67,VALID,0,
2002-07-15, 01:26:00,VALID,917.551,VALID,0,VALID,95.9095,VALID,0,VALID,17.5805,VALID,67,VALID,0.0195313,
2002-07-15, 01:27:00,VALID,917.505,VALID,0,VALID,95.8218,VALID,-0.0169808,VALID,17.6001,VALID,138,VALID,0.542101,
2002-07-15, 01:28:00,VALID,917.488,VALID,0,VALID,95.7912,VALID,0,VALID,17.5999,VALID,151,VALID,0.385851,
2002-07-15, 01:29:00,VALID,917.458,VALID,0,VALID,95.7696,VALID,0,VALID,17.607,VALID,139,VALID,0.188879,
2002-07-15, 01:30:00,VALID,917.445,VALID,0,VALID,95.7798,VALID,-0.0339617,VALID,17.6003,VALID,81,VALID,0.221652,
2002-07-15, 01:31:00,VALID,917.444,VALID,0,VALID,96.2745,VALID,-0.0169808,VALID,17.6458,VALID,71,VALID,0.49399,
2002-07-15, 01:32:00,VALID,917.425,VALID,0,VALID,96.0875,VALID,-0.0169808,VALID,17.7456,VALID,52,VALID,0.340372,
2002-07-15, 01:33:00,VALID,917.424,VALID,0,VALID,95.6717,VALID,0,VALID,17.7846,VALID,176,VALID,0.412418,
2002-07-15, 01:34:00,VALID,917.425,VALID,0,VALID,95.5496,VALID,-0.0169808,VALID,17.8261,VALID,166,VALID,0.463393,
2002-07-15, 01:35:00,VALID,917.414,VALID,0,VALID,94.9761,VALID,-0.0339617,VALID,17.8584,VALID,46,VALID,0.690505,
2002-07-15, 01:36:00,VALID,917.432,VALID,0,VALID,94.5781,VALID,0,VALID,17.839,VALID,39,VALID,0.360085,
2002-07-15, 01:37:00,VALID,917.437,VALID,0,VALID,94.4599,VALID,0,VALID,17.8552,VALID,44,VALID,0.174479,
2002-07-15, 01:38:00,VALID,917.46,VALID,0,VALID,94.6532,VALID,0,VALID,17.8912,VALID,44,VALID,0.234992,
2002-07-15, 01:39:00,VALID,917.453,VALID,0,VALID,94.6506,VALID,-0.0169808,VALID,17.9331,VALID,44,VALID,0.0242187,
2002-07-15, 01:40:00,VALID,917.456,VALID,0,VALID,94.47,VALID,0,VALID,17.9523,VALID,27,VALID,0.163477,
2002-07-15, 01:41:00,VALID,917.453,VALID,0,VALID,94.278,VALID,-0.0339617,VALID,17.9687,VALID,276,VALID,0.175564,
2002-07-15, 01:42:00,VALID,917.481,VALID,0,VALID,94.2513,VALID,0,VALID,17.9714,VALID,276,VALID,0.192057,
2002-07-15, 01:43:00,VALID,917.461,VALID,0,VALID,94.2056,VALID,0,VALID,17.9908,VALID,277,VALID,0.144072,
2002-07-15, 01:44:00,VALID,917.487,VALID,0,VALID,94.3492,VALID,-0.0169808,VALID,17.9973,VALID,307,VALID,0.293973,
2002-07-15, 01:45:00,VALID,917.482,VALID,0,VALID,94.3162,VALID,-0.0509425,VALID,17.9945,VALID,15,VALID,0.533454,
2002-07-15, 01:46:00,VALID,917.485,VALID,0,VALID,94.2475,VALID,-0.0679233,VALID,17.9751,VALID,317,VALID,0.192356,
2002-07-15, 01:47:00,VALID,917.52,VALID,0,VALID,94.4446,VALID,-0.0509425,VALID,17.9945,VALID,352,VALID,0.294202,
2002-07-15, 01:48:00,VALID,917.525,VALID,0,VALID,94.4802,VALID,-0.0169808,VALID,18.0104,VALID,18,VALID,1.21161,
2002-07-15, 01:49:00,VALID,917.512,VALID,0,VALID,94.8236,VALID,-0.0169808,VALID,18.0849,VALID,186,VALID,1.09716,
2002-07-15, 01:50:00,VALID,917.531,VALID,0,VALID,94.8401,VALID,-0.0169808,VALID,18.1751,VALID,165,VALID,0.278172,
2002-07-15, 01:51:00,VALID,917.545,VALID,0,VALID,94.395,VALID,-0.0509425,VALID,18.2014,VALID,73,VALID,0.273003,
2002-07-15, 01:52:00,VALID,917.564,VALID,0,VALID,94.1343,VALID,-0.0339617,VALID,18.2072,VALID,12,VALID,0.335526,
2002-07-15, 01:53:00,VALID,917.586,VALID,0,VALID,94.189,VALID,-0.0169808,VALID,18.2169,VALID,351,VALID,0.78457,
2002-07-15, 01:54:00,VALID,917.494,VALID,0,VALID,93.8393,VALID,-0.0509425,VALID,18.4916,VALID,233,VALID,2.38262,
2002-07-15, 01:55:00,VALID,917.487,VALID,0,VALID,90.5319,VALID,-0.0849042,VALID,19.2087,VALID,285,VALID,1.54536,
2002-07-15, 01:56:00,VALID,917.494,VALID,0,VALID,88.2824,VALID,-0.0679233,VALID,19.525,VALID,6,VALID,1.1122,
2002-07-15, 01:57:00,VALID,917.513,VALID,0,VALID,87.8679,VALID,-0.0339617,VALID,19.5248,VALID,333,VALID,0.448989,
2002-07-15, 01:58:00,VALID,917.53,VALID,0,VALID,88.1146,VALID,-0.0509425,VALID,19.5675,VALID,215,VALID,0.877455,
2002-07-15, 01:59:00,VALID,917.527,VALID,0,VALID,88.0955,VALID,-0.0339617,VALID,19.5926,VALID,305,VALID,0.453926,
2002-07-15, 02:00:00,VALID,917.544,VALID,0,VALID,88.5202,VALID,-0.0339617,VALID,19.5511,VALID,255,VALID,0.646326,
2002-07-15, 02:01:00,VALID,917.534,VALID,0,VALID,88.9869,VALID,-0.0339617,VALID,19.4763,VALID,321,VALID,1.14124,
2002-07-15, 02:02:00,VALID,917.478,VALID,0,VALID,88.9971,VALID,-0.0509425,VALID,19.4378,VALID,220,VALID,1.39866,
2002-07-15, 02:03:00,VALID,917.516,VALID,0,VALID,88.4617,VALID,-0.0339617,VALID,19.5769,VALID,323,VALID,0.524038,
2002-07-15, 02:04:00,VALID,917.54,VALID,0,VALID,88.6016,VALID,-0.0509425,VALID,19.567,VALID,2,VALID,1.38542,
2002-07-15, 02:05:00,VALID,917.566,VALID,0,VALID,89.3709,VALID,0,VALID,19.444,VALID,18,VALID,0.649957,
2002-07-15, 02:06:00,VALID,917.584,VALID,0,VALID,89.8999,VALID,-0.0169808,VALID,19.3729,VALID,229,VALID,0.820518,
2002-07-15, 02:07:00,VALID,917.599,VALID,0,VALID,90.3284,VALID,-0.0169808,VALID,19.2785,VALID,199,VALID,1.25742,
2002-07-15, 02:08:00,VALID,917.572,VALID,0,VALID,90.9261,VALID,0,VALID,19.1692,VALID,146,VALID,0.422852,
2002-07-15, 02:09:00,VALID,917.537,VALID,0,VALID,91.1245,VALID,-0.0169808,VALID,19.1498,VALID,280,VALID,0.578125,
2002-07-15, 02:10:00,VALID,917.611,VALID,0,VALID,91.1473,VALID,-0.0339617,VALID,19.1364,VALID,213,VALID,0.22309,
2002-07-15, 02:11:00,VALID,917.593,VALID,0,VALID,91.3966,VALID,-0.0169808,VALID,19.124,VALID,232,VALID,0.68727,
2002-07-15, 02:12:00,VALID,917.593,VALID,0,VALID,91.4233,VALID,-0.0339617,VALID,19.1138,VALID,221,VALID,0.905357,
2002-07-15, 02:13:00,VALID,917.605,VALID,0,VALID,91.2071,VALID,-0.0169808,VALID,19.1687,VALID,254,VALID,0.809095,
2002-07-15, 02:14:00,VALID,917.609,VALID,0,VALID,91.1715,VALID,-0.0509425,VALID,19.2072,VALID,225,VALID,0.546453,
2002-07-15, 02:15:00,VALID,917.62,VALID,0,VALID,91.3406,VALID,0,VALID,19.2169,VALID,301,VALID,0.942229,
2002-07-15, 02:16:00,VALID,917.557,VALID,0,VALID,90.5446,VALID,0,VALID,19.2591,VALID,178,VALID,1.78527,
2002-07-15, 02:17:00,VALID,917.576,VALID,0,VALID,89.3913,VALID,0,VALID,19.4694,VALID,226,VALID,1.15745,
2002-07-15, 02:18:00,VALID,917.628,VALID,0,VALID,88.8216,VALID,0,VALID,19.6692,VALID,288,VALID,0.747633,
2002-07-15, 02:19:00,VALID,917.635,VALID,0,VALID,88.7059,VALID,0,VALID,19.7049,VALID,31,VALID,0.571832,
2002-07-15, 02:20:00,VALID,917.613,VALID,0,VALID,88.6118,VALID,0.0169808,VALID,19.7271,VALID,69,VALID,0.701686,
2002-07-15, 02:21:00,VALID,917.608,VALID,0,VALID,88.6219,VALID,-0.0169808,VALID,19.7532,VALID,110,VALID,0.619727,
2002-07-15, 02:22:00,VALID,917.647,VALID,0,VALID,88.7694,VALID,-0.0509425,VALID,19.7561,VALID,13,VALID,0.99043,
2002-07-15, 02:23:00,VALID,917.624,VALID,0,VALID,88.7783,VALID,0,VALID,19.7367,VALID,184,VALID,0.933377,
2002-07-15, 02:24:00,VALID,917.608,VALID,0,VALID,88.5838,VALID,0,VALID,19.7696,VALID,208,VALID,0.796875,
2002-07-15, 02:25:00,VALID,917.671,VALID,0,VALID,88.4948,VALID,0,VALID,19.7653,VALID,125,VALID,1.02987,
2002-07-15, 02:26:00,VALID,917.672,VALID,0,VALID,88.566,VALID,0,VALID,19.7812,VALID,20,VALID,0.649107,
2002-07-15, 02:27:00,VALID,917.706,VALID,0,VALID,88.4935,VALID,0,VALID,19.7812,VALID,78,VALID,0.848558,
2002-07-15, 02:28:00,VALID,917.724,VALID,0,VALID,88.0243,VALID,0,VALID,19.8396,VALID,69,VALID,2.71812,
2002-07-15, 02:29:00,VALID,917.743,VALID,0,VALID,88.1171,VALID,0,VALID,19.8498,VALID,78,VALID,0.936883,
2002-07-15, 02:30:00,VALID,917.784,VALID,0,VALID,87.4978,VALID,0,VALID,19.9042,VALID,291,VALID,1.60223,
2002-07-15, 02:31:00,VALID,917.711,VALID,0,VALID,88.3079,VALID,0,VALID,19.8754,VALID,35,VALID,2.35857,
2002-07-15, 02:32:00,VALID,917.752,VALID,0,VALID,87.845,VALID,-0.0339617,VALID,19.8205,VALID,202,VALID,1.19081,
2002-07-15, 02:33:00,VALID,917.79,VALID,0,VALID,87.3452,VALID,0,VALID,19.9201,VALID,332,VALID,1.45161,
2002-07-15, 02:34:00,VALID,917.804,VALID,0,VALID,87.7394,VALID,0,VALID,19.9303,VALID,15,VALID,0.872944,
2002-07-15, 02:35:00,VALID,917.778,VALID,0,VALID,88.0319,VALID,0,VALID,19.8588,VALID,351,VALID,0.943555,
2002-07-15, 02:36:00,VALID,917.76,VALID,0,VALID,87.8196,VALID,0,VALID,19.8235,VALID,187,VALID,0.879492,
2002-07-15, 02:37:00,VALID,917.754,VALID,0,VALID,87.9442,VALID,0,VALID,19.8106,VALID,31,VALID,1.08442,
2002-07-15, 02:38:00,VALID,917.758,VALID,0,VALID,88.0586,VALID,0,VALID,19.7686,VALID,43,VALID,0.92513,
2002-07-15, 02:39:00,VALID,917.751,VALID,0,VALID,88.4325,VALID,0,VALID,19.7261,VALID,40,VALID,0.305377,
2002-07-15, 02:40:00,VALID,917.729,VALID,0,VALID,88.9869,VALID,0.0339617,VALID,19.6647,VALID,32,VALID,0.767857,
2002-07-15, 02:41:00,VALID,917.7,VALID,0,VALID,89.2145,VALID,0,VALID,19.5939,VALID,118,VALID,0.800681,
2002-07-15, 02:42:00,VALID,917.711,VALID,0,VALID,89.0021,VALID,0,VALID,19.5643,VALID,212,VALID,1.3239,
2002-07-15, 02:43:00,VALID,917.722,VALID,0,VALID,88.7008,VALID,0,VALID,19.6033,VALID,246,VALID,0.509663,
2002-07-15, 02:44:00,VALID,917.723,VALID,0,VALID,88.9131,VALID,0.0169808,VALID,19.6162,VALID,303,VALID,0.527679,
2002-07-15, 02:45:00,VALID,917.722,VALID,0,VALID,89.0149,VALID,0.0169808,VALID,19.5742,VALID,178,VALID,0.545673,
2002-07-15, 02:46:00,VALID,917.721,VALID,0,VALID,88.8419,VALID,0.0169808,VALID,19.5452,VALID,196,VALID,1.1437,
2002-07-15, 02:47:00,VALID,917.67,VALID,0,VALID,88.4134,VALID,0.0169808,VALID,19.5544,VALID,251,VALID,0.46658,
2002-07-15, 02:48:00,VALID,917.72,VALID,0,VALID,88.4172,VALID,0.0339617,VALID,19.5673,VALID,327,VALID,0.78824,
2002-07-15, 02:49:00,VALID,917.707,VALID,0,VALID,87.756,VALID,-0.0679233,VALID,19.5596,VALID,64,VALID,0.998633,
2002-07-15, 02:50:00,VALID,917.725,VALID,0,VALID,87.5602,VALID,-0.101885,VALID,19.5787,VALID,46,VALID,0.513672,
2002-07-15, 02:51:00,VALID,917.756,VALID,0,VALID,87.6377,VALID,-0.0849042,VALID,19.5785,VALID,180,VALID,0.965061,
2002-07-15, 02:52:00,VALID,917.713,VALID,0,VALID,87.7293,VALID,-0.0849042,VALID,19.6013,VALID,308,VALID,0.568359,
2002-07-15, 02:53:00,VALID,917.671,VALID,0,VALID,88.0535,VALID,-0.0849042,VALID,19.5755,VALID,294,VALID,0.951057,
2002-07-15, 02:54:00,VALID,917.652,VALID,0,VALID,87.8068,VALID,-0.101885,VALID,19.5531,VALID,229,VALID,1.22321,
2002-07-15, 02:55:00,VALID,917.665,VALID,0,VALID,87.4648,VALID,-0.101885,VALID,19.5822,VALID,239,VALID,1.23878,
2002-07-15, 02:56:00,VALID,917.671,VALID,0,VALID,84.5185,VALID,-0.101885,VALID,19.7922,VALID,276,VALID,2.69003,
2002-07-15, 02:57:00,VALID,917.681,VALID,0,VALID,84.8415,VALID,-0.0679233,VALID,19.9085,VALID,8,VALID,1.43113,
2002-07-15, 02:58:00,VALID,917.643,VALID,0,VALID,84.3366,VALID,-0.101885,VALID,19.8603,VALID,343,VALID,1.10938,
2002-07-15, 02:59:00,VALID,917.68,VALID,0,VALID,84.5337,VALID,-0.101885,VALID,19.8342,VALID,36,VALID,1.0647,
2002-07-15, 03:00:00,VALID,917.653,VALID,0,VALID,84.3443,VALID,-0.101885,VALID,19.8247,VALID,264,VALID,1.24053,
2002-07-15, 03:01:00,VALID,917.699,VALID,0,VALID,82.3224,VALID,-0.101885,VALID,19.9047,VALID,227,VALID,1.56489,
2002-07-15, 03:02:00,VALID,917.662,VALID,0,VALID,82.3148,VALID,-0.118866,VALID,20.0504,VALID,296,VALID,1.17701,
2002-07-15, 03:03:00,VALID,917.675,VALID,0,VALID,81.9536,VALID,-0.101885,VALID,20.0765,VALID,252,VALID,1.61992,
2002-07-15, 03:04:00,VALID,917.676,VALID,0,VALID,80.9694,VALID,0,VALID,20.1401,VALID,276,VALID,1.28301,
2002-07-15, 03:05:00,VALID,917.7,VALID,0,VALID,82.1609,VALID,0,VALID,20.1684,VALID,1,VALID,1.11176,
2002-07-15, 03:06:00,VALID,917.652,VALID,0,VALID,83.0498,VALID,0,VALID,20.0685,VALID,328,VALID,0.752604,
2002-07-15, 03:07:00,VALID,917.711,VALID,0,VALID,83.7186,VALID,0,VALID,19.9651,VALID,140,VALID,0.472656,
2002-07-15, 03:08:00,VALID,917.7,VALID,0,VALID,84.2031,VALID,0.0339617,VALID,19.8645,VALID,108,VALID,0.565179,
2002-07-15, 03:09:00,VALID,917.681,VALID,0,VALID,83.8115,VALID,0.0169808,VALID,19.7942,VALID,195,VALID,0.980569,
2002-07-15, 03:10:00,VALID,917.681,VALID,0,VALID,82.8183,VALID,0,VALID,19.7969,VALID,231,VALID,1.40646,
2002-07-15, 03:11:00,VALID,917.639,VALID,0,VALID,82.7878,VALID,0.0339617,VALID,19.8421,VALID,253,VALID,0.481908,
2002-07-15, 03:12:00,VALID,917.628,VALID,0,VALID,82.8031,VALID,-0.0169808,VALID,19.8617,VALID,282,VALID,0.967857,
2002-07-15, 03:13:00,VALID,917.613,VALID,0,VALID,81.6472,VALID,0,VALID,19.9132,VALID,234,VALID,2.61538,
2002-07-15, 03:14:00,VALID,917.589,VALID,0,VALID,80.9643,VALID,0,VALID,20.0456,VALID,291,VALID,1.16738,
2002-07-15, 03:15:00,VALID,917.603,VALID,0,VALID,81.2454,VALID,0,VALID,20.0518,VALID,345,VALID,1.31402,
2002-07-15, 03:16:00,VALID,917.597,VALID,0,VALID,80.8321,VALID,0.0169808,VALID,20.0618,VALID,241,VALID,1.33265,
2002-07-15, 03:17:00,VALID,917.598,VALID,0,VALID,80.3463,VALID,0,VALID,20.0774,VALID,223,VALID,0.413672,
2002-07-15, 03:18:00,VALID,917.557,VALID,0,VALID,80.6172,VALID,0.0169808,VALID,20.0842,VALID,165,VALID,1.17109,
2002-07-15, 03:19:00,VALID,917.507,VALID,0,VALID,80.7304,VALID,0.0509425,VALID,20.0548,VALID,233,VALID,0.990017,
2002-07-15, 03:20:00,VALID,917.518,VALID,0,VALID,80.6706,VALID,0,VALID,20.026,VALID,234,VALID,0.922092,
2002-07-15, 03:21:00,VALID,917.53,VALID,0,VALID,80.2891,VALID,0.0339617,VALID,20.0454,VALID,255,VALID,0.97909,
2002-07-15, 03:22:00,VALID,917.514,VALID,0,VALID,79.6126,VALID,0,VALID,20.0459,VALID,269,VALID,0.459152,
2002-07-15, 03:23:00,VALID,917.482,VALID,0,VALID,79.6978,VALID,0.0169808,VALID,20.065,VALID,187,VALID,0.261218,
2002-07-15, 03:24:00,VALID,917.455,VALID,0,VALID,81.0686,VALID,0.0169808,VALID,20.0064,VALID,226,VALID,0.626056,
2002-07-15, 03:25:00,VALID,917.451,VALID,0,VALID,79.9076,VALID,0.0169808,VALID,19.9194,VALID,220,VALID,1.36451,
2002-07-15, 03:26:00,VALID,917.445,VALID,0,VALID,79.24,VALID,0.0169808,VALID,19.9964,VALID,276,VALID,1.02679,
2002-07-15, 03:27:00,VALID,917.456,VALID,0,VALID,78.9679,VALID,0.0169808,VALID,20.0618,VALID,230,VALID,0.472556,
2002-07-15, 03:28:00,VALID,917.431,VALID,0,VALID,79.0849,VALID,0,VALID,20.0484,VALID,201,VALID,0.657197,
2002-07-15, 03:29:00,VALID,917.419,VALID,0,VALID,78.5496,VALID,0,VALID,20.0581,VALID,244,VALID,0.98763,
2002-07-15, 03:30:00,VALID,917.418,VALID,0,VALID,78.4555,VALID,-0.0169808,VALID,20.0777,VALID,265,VALID,0.781456,
2002-07-15, 03:31:00,VALID,917.422,VALID,0,VALID,78.6538,VALID,0.0169808,VALID,20.1008,VALID,302,VALID,0.92832,
2002-07-15, 03:32:00,VALID,917.417,VALID,0,VALID,80.2611,VALID,0,VALID,20.0422,VALID,349,VALID,0.712891,
2002-07-15, 03:33:00,VALID,917.417,VALID,0,VALID,81.4692,VALID,0,VALID,19.8292,VALID,225,VALID,0.425347,